Location: Erp
(42.9417°N, 1.2009°E)
Time: 08:48:29
(UTC+00:00)

Cosmos 2297 - Pass Details

Date: 12 January 2026
Orbit: 835 x 857 km, 71.0° (Epoch: 17 February)

Event Time Altitude Azimuth Distance (km) Brightness Sun altitude
Rises 17:27:53 0° 335° (NNW) 3,398 6.9 -8.3°
Reaches altitude 10° 17:30:20 10° 336° (NNW) 2,462 6.2 -8.7°
Maximum altitude 17:36:00 88° 67° (ENE) 848 3.7 -9.7°
Drops below altitude 10° 17:41:40 10° 156° (SSE) 2,460 6.1 -10.7°
Sets 17:44:06 0° 157° (SSE) 3,394 6.8 -11.1°
